Regional Weather Roundup
Issued by NWS State College, PA

Home | Current Version | Previous Version | Graphics & Text | Print | Product List | Glossary On
Versions: 1 2 3 4 5 6 7 8 9 10 11 12 13 14 15 16 17 18 19 20 21 22 23 24 25 26 27 28 29 30 31 32 33 34 35 36 37 38 39 40 41 42 43 44 45 46 47 48 49 50
000
ASUS41 KCTP 050910
RWRCTP

REGIONAL WEATHER ROUNDUP
NATIONAL WEATHER SERVICE STATE COLLEGE PA
500 AM EDT TUE MAY 05 2015

Note: "fair" indicates few or no clouds below 12,000 feet with no
significant weather and/or obstructions to visibility.

* = STATION THAT DOES NOT REPORT PRECIPITATION /E.G. RAIN...SNOW...ETC/
    THUNDER OR FOG.

PAZ002>004-007>009-013>016-020>023-029>032-051000-
WESTERN PENNSYLVANIA

CITY           SKY/WX    TMP DP  RH WIND       PRES   REMARKS
ERIE           FOG       52  50  93 CALM      30.23R VSB 1/2
MEADVILLE      FOG       55  53  93 CALM      30.23R VSB<1/4
FRANKLIN*      PTCLDY    55  52  88 CALM      30.24S
NEW CASTLE     FOG       55  55 100 CALM      30.24R VSB 1
BEAVER COUNTY  NOT AVBL
BUTLER*        MOCLDY    57  55  94 CALM      30.25R
PITTSBURGH INT MOCLDY    59  57  93 CALM      30.22S
PITTSBURGH     CLOUDY    63  54  72 CALM      30.21S
INDIANA*       CLOUDY    61  57  88 CALM      30.27R
LATROBE        MOCLDY    59  59 100 CALM      30.25R
WASHINGTON CO* MOCLDY    59  57  94 CALM      30.25R
$$

PAZ004>006-010>012-017>019-024>028-033>037-041-042-045-046-049>053-051000-
CENTRAL PENNSYLVANIA

CITY           SKY/WX    TMP DP  RH WIND       PRES   REMARKS
BRADFORD       CLOUDY    59  55  87 CALM      30.25R
DUBOIS         PTCLDY    58  55  90 CALM      30.23S FOG
CLEARFIELD     PTCLDY    60  55  83 W3        30.24R
JOHNSTOWN      MOCLDY    60  53  77 CALM      30.24S
ALTOONA        MOCLDY    60  53  77 CALM      30.24R
STATE COLLEGE  PTCLDY    64  55  74 W6        30.22S
WILLIAMSPORT   PTCLDY    63  54  72 W7        30.18R
SELINSGROVE    MOCLDY    62  56  80 CALM      30.19R
FT INDIANTOWN  CLOUDY    56  51  81 S1        30.18S
CAPITAL CITY   PTCLDY    64  52  64 CALM      30.18R
HARRISBURG     MOCLDY    60  52  74 CALM      30.17S
YORK           PTCLDY    54  50  86 CALM      30.19R
$$

PAZ038>040-043-044-047-048-054-055-060>062-067>071-051000-
EASTERN PENNSYLVANIA

CITY           SKY/WX    TMP DP  RH WIND       PRES   REMARKS
SCRANTON       CLOUDY    69  53  56 NW3       30.18R
MOUNT POCONO   CLOUDY    59  46  62 NW6       30.19S
ALLENTOWN      PTCLDY    53  48  83 SW3       30.17R
QUAKERTOWN*    SUNNY     55  50  82 CALM      30.18S
READING        PTCLDY    58  50  75 NW3       30.16S
LANCASTER      PTCLDY    56  50  80 CALM      30.17S
COATESVILLE    SUNNY     63  54  72 SW6       30.19F
POTTSTOWN      CLEAR     63  52  67 S3        30.18S
BLUE BELL      CLEAR     63  52  67 CALM      30.17S
DOYLESTOWN     CLEAR     61  50  67 SW3       30.16S
WILLOW GROVE   NOT AVBL
NORTH PHILA    CLEAR     64  49  57 W6        30.18S
PHILADELPHIA   PTCLDY    63  51  65 SW7       30.18S
$$



USA.gov is the U.S. government's official web portal to all federal, state and local government web resources and services.